This demonstration page uses our WeatherBlox Daily Observations layout. Learn more.

38.89511, -77.03637

Hourly Observations for June 22, 2018

Temp ( °F °C ) Dew Point ( °F °C ) Humidity (%) Winds ( mph kmh ) Pressure ( in mb ) Visibility ( mi km ) Precip ( " mm )
12:52 am 00:52 Cloudy with Light Rain 77 25 69 20.6 77 77 ESE 7 11 29.83 1010 10 16.09344 0.001 0.001
1:52 am 01:52 Mostly Cloudy 76 24.4 69 20.6 79 79 ESE 6 9 29.8 1009 10 16.09344 0.01 0.254
2:52 am 02:52 Cloudy 75 23.9 68 20 79 79 ESE 10 17 29.8 1009 10 16.09344 0.001 0.001
3:52 am 03:52 Cloudy 75 23.9 68 20 79 79 E 9 15 29.8 1009 10 16.09344 0.001 0.001
4:52 am 04:52 Cloudy 75 23.9 66 18.9 74 74 E 7 11 29.8 1009 10 16.09344 0 0
5:52 am 05:52 Cloudy 74 23.3 67 19.4 79 79 ENE 8 13 29.83 1010 10 16.09344 0 0
6:29 am 06:29 Cloudy with Light Rain 74 23.3 64 17.8 71 71 E 7 11 29.85 1011 10 16.09344 0.001 0.001
6:52 am 06:52 Cloudy with Light Rain 73 22.8 63 17.2 71 71 ENE 7 11 29.85 1011 10 16.09344 0.01 0.254
7:52 am 07:52 Cloudy with Light Rain 72 22.2 64 17.8 76 76 E 7 11 29.85 1011 10 16.09344 0.03 0.762
8:52 am 08:52 Cloudy with Light Rain 70 21.1 63 17.2 79 79 NE 8 13 29.88 1012 10 16.09344 0.03 0.762
9:52 am 09:52 Cloudy with Rain 70 21.1 64 17.8 82 82 NE 8 13 29.88 1012 8 12.874752 0.02 0.508
10:22 am 10:22 Cloudy with Rain 70 21.1 65 18.3 84 84 ENE 10 17 29.88 1012 5 8.04672 0.04 1.016
10:52 am 10:52 Cloudy with Light Rain 71 21.7 66 18.9 84 84 ENE 10 17 29.88 1012 6 9.656064 0.07 1.778
11:09 am 11:09 Cloudy with Light Rain 71 21.7 66 18.9 84 84 ENE 7 11 29.91 1013 10 16.09344 0.01 0.254
11:52 am 11:52 Cloudy with Rain 71 21.7 66 18.9 84 84 E 12 19 29.88 1012 6 9.656064 0.04 1.016
12:15 pm 12:15 Cloudy with Light Rain 71 21.7 66 18.9 84 84 E 9 15 29.91 1013 4 6.437376 0.04 1.016
12:52 pm 12:52 Cloudy with Light Rain 71 21.7 66 18.9 84 84 E 9 15 29.91 1013 6 9.656064 0.06 1.524
12:55 pm 12:55 Cloudy with Heavy Rain 71 21.7 66 18.9 84 84 E 10 17 29.91 1013 2.5 4.02336 0.001 0.001
1:09 pm 13:09 Cloudy with Light Rain 71 21.7 66 18.9 84 84 ENE 10 17 29.91 1013 5 8.04672 0.03 0.762
1:28 pm 13:28 Cloudy with Rain 72 22.2 67 19.4 84 84 ENE 12 19 29.91 1013 3 4.828032 0.04 1.016
1:31 pm 13:31 Cloudy with Heavy Rain 71 21.7 66 18.9 84 84 E 12 19 29.91 1013 2 3.218688 0.05 1.27
1:39 pm 13:39 Cloudy with Heavy Rain 71 21.7 67 19.4 87 87 ENE 9 15 29.91 1013 1.5 2.414016 0.09 2.286
1:43 pm 13:43 Cloudy with Heavy Rain 71 21.7 67 19.4 87 87 ENE 12 19 29.91 1013 1.25 2.01168 0.13 3.302
1:52 pm 13:52 Cloudy with Rain 70 21.1 66 18.9 87 87 ENE 10 17 29.88 1012 1.25 2.01168 0.26 6.604
1:56 pm 13:56 Cloudy with Light Rain 70 21.1 66 18.9 87 87 ENE 10 17 29.91 1013 3 4.828032 0.01 0.254
2:06 pm 14:06 Cloudy with Light Rain 70 21.1 66 18.9 87 87 E 10 17 29.91 1013 7 11.265408 0.01 0.254
2:16 pm 14:16 Cloudy with Light Rain 70 21.1 66 18.9 87 87 ENE 10 17 29.91 1013 7 11.265408 0.01 0.254
2:38 pm 14:38 Cloudy with Rain 71 21.7 66 18.9 84 84 E 10 17 29.91 1013 2.5 4.02336 0.01 0.254
2:52 pm 14:52 Cloudy with Light Rain 70 21.1 65 18.3 84 84 E 9 15 29.88 1012 3 4.828032 0.03 0.762
3:03 pm 15:03 Cloudy with Light Rain 70 21.1 65 18.3 84 84 E 10 17 29.88 1012 7 11.265408 0.001 0.001
3:50 pm 15:50 Cloudy 70 21 64 18 83 83 E 10 17 29.91 1013 10 16.09344 0.001 0.001
3:52 pm 15:52 Cloudy 70 21.1 64 17.8 82 82 E 10 17 29.88 1012 10 16.09344 0.001 0.001
4:52 pm 16:52 Cloudy with Light Rain 70 21.1 64 17.8 82 82 E 10 17 29.88 1012 3 4.828032 0.001 0.001
5:00 pm 17:00 Cloudy with Light Rain 69 20.6 64 17.8 84 84 E 12 19 29.88 1012 3 4.828032 0.001 0.001
5:16 pm 17:16 Cloudy 69 20.6 64 17.8 84 84 ENE 9 15 29.91 1013 10 16.09344 0.001 0.001
5:52 pm 17:52 Cloudy 69 20.6 65 18.3 87 87 ENE 12 19 29.85 1011 10 16.09344 0.001 0.001
6:28 pm 18:28 Cloudy 69 20.6 65 18.3 87 87 NE 10 17 29.88 1012 10 16.09344 0 0
6:52 pm 18:52 Cloudy with Light Rain 69 20.6 64 17.8 84 84 NNE 7 11 29.88 1012 10 16.09344 0.001 0.001
7:52 pm 19:52 Cloudy 69 20.6 64 17.8 84 84 ENE 14 22 29.85 1011 10 16.09344 0.01 0.254
8:52 pm 20:52 Cloudy 69 20.6 64 17.8 84 84 NE 13 20 29.88 1012 10 16.09344 0 0
9:52 pm 21:52 Cloudy 68 20 64 17.8 87 87 NE 10 17 29.88 1012 10 16.09344 0 0
10:52 pm 22:52 Cloudy 68 20 63 17.2 84 84 ENE 13 20 29.85 1011 10 16.09344 0 0
11:31 pm 23:31 Cloudy 68 20 64 17.8 87 87 NE 10 17 29.85 1011 10 16.09344 0 0
11:52 pm 23:52 Cloudy 67 19.4 64 17.8 91 91 NE 10 17 29.85 1011 10 16.09344 0 0

Powered by AerisWeather